TimeEST,TemperatureF,Dew PointF,Humidity,Sea Level PressureIn,VisibilityMPH,Wind Direction,Wind SpeedMPH,Gust SpeedMPH,PrecipitationIn,Events,Conditions,WindDirDegrees,DateUTC
12:15 AM,32.0,30.2,93,30.26,10.0,Calm,Calm,-,N/A,,Clear,0,2012-12-01 05:15:00
12:35 AM,32.0,30.2,93,30.27,10.0,Calm,Calm,-,N/A,,Clear,0,2012-12-01 05:35:00
12:55 AM,32.0,30.2,93,30.27,10.0,Calm,Calm,-,N/A,,Clear,0,2012-12-01 05:55:00
1:15 AM,32.0,30.2,93,30.26,10.0,Calm,Calm,-,N/A,,Clear,0,2012-12-01 06:15:00
1:35 AM,32.0,30.2,93,30.26,10.0,Calm,Calm,-,N/A,,Clear,0,2012-12-01 06:35:00
2:15 AM,32.0,30.2,93,30.27,10.0,Calm,Calm,-,N/A,,Clear,0,2012-12-01 07:15:00
2:35 AM,32.0,30.2,93,30.28,10.0,Calm,Calm,-,N/A,,Clear,0,2012-12-01 07:35:00
2:55 AM,32.0,30.2,93,30.29,10.0,Calm,Calm,-,N/A,,Clear,0,2012-12-01 07:55:00
3:15 AM,32.0,28.4,87,30.29,10.0,Calm,Calm,-,N/A,,Clear,0,2012-12-01 08:15:00
3:35 AM,32.0,28.4,87,30.29,10.0,Calm,Calm,-,N/A,,Clear,0,2012-12-01 08:35:00
3:55 AM,32.0,30.2,93,30.29,10.0,Calm,Calm,-,N/A,,Clear,0,2012-12-01 08:55:00
4:15 AM,30.2,28.4,93,30.30,10.0,Calm,Calm,-,N/A,,Clear,0,2012-12-01 09:15:00
4:35 AM,30.2,28.4,93,30.30,10.0,Calm,Calm,-,N/A,,Clear,0,2012-12-01 09:35:00
4:55 AM,30.2,28.4,93,30.30,10.0,Calm,Calm,-,N/A,,Clear,0,2012-12-01 09:55:00
5:15 AM,30.2,28.4,93,30.30,7.0,Calm,Calm,-,N/A,,Clear,0,2012-12-01 10:15:00
5:35 AM,30.2,28.4,93,30.30,7.0,Calm,Calm,-,N/A,,Clear,0,2012-12-01 10:35:00
5:55 AM,30.2,28.4,93,30.31,7.0,Calm,Calm,-,N/A,,Clear,0,2012-12-01 10:55:00
6:15 AM,30.2,28.4,93,30.32,7.0,Calm,Calm,-,N/A,,Clear,0,2012-12-01 11:15:00
6:35 AM,30.2,28.4,93,30.32,7.0,Calm,Calm,-,N/A,,Scattered Clouds,0,2012-12-01 11:35:00
6:55 AM,30.2,28.4,93,30.33,10.0,Calm,Calm,-,N/A,,Overcast,0,2012-12-01 11:55:00
7:15 AM,32.0,30.2,93,30.33,10.0,Calm,Calm,-,N/A,,Overcast,0,2012-12-01 12:15:00
7:35 AM,32.0,28.4,87,30.33,10.0,Calm,Calm,-,N/A,,Mostly Cloudy,0,2012-12-01 12:35:00
7:55 AM,30.2,30.2,100,30.33,7.0,Calm,Calm,-,N/A,,Scattered Clouds,0,2012-12-01 12:55:00
8:15 AM,32.0,30.2,93,30.34,10.0,Calm,Calm,-,N/A,,Mostly Cloudy,0,2012-12-01 13:15:00
8:35 AM,33.8,32.0,93,30.34,10.0,Calm,Calm,-,N/A,,Mostly Cloudy,0,2012-12-01 13:35:00
8:55 AM,35.6,32.0,87,30.35,10.0,Calm,Calm,-,N/A,,Overcast,0,2012-12-01 13:55:00
9:15 AM,35.6,32.0,87,30.34,10.0,Calm,Calm,-,N/A,,Overcast,0,2012-12-01 14:15:00
9:35 AM,37.4,33.8,87,30.35,10.0,Calm,Calm,-,N/A,,Mostly Cloudy,0,2012-12-01 14:35:00
9:55 AM,39.2,33.8,81,30.35,10.0,Calm,Calm,-,N/A,,Overcast,0,2012-12-01 14:55:00
10:15 AM,41.0,35.6,81,30.35,10.0,Calm,Calm,-,N/A,,Overcast,0,2012-12-01 15:15:00
10:35 AM,44.6,37.4,76,30.35,10.0,Calm,Calm,-,N/A,,Overcast,0,2012-12-01 15:35:00
10:55 AM,46.4,37.4,71,30.35,10.0,Calm,Calm,-,N/A,,Overcast,0,2012-12-01 15:55:00
11:15 AM,50.0,39.2,66,30.34,10.0,Calm,Calm,-,N/A,,Overcast,0,2012-12-01 16:15:00
11:35 AM,51.8,41.0,67,30.33,10.0,Calm,Calm,-,N/A,,Overcast,0,2012-12-01 16:35:00
11:55 AM,55.4,41.0,58,30.31,10.0,WSW,3.5,-,N/A,,Scattered Clouds,250,2012-12-01 16:55:00
12:15 PM,59.0,41.0,51,30.30,10.0,SSW,6.9,-,N/A,,Scattered Clouds,200,2012-12-01 17:15:00
12:35 PM,59.0,41.0,51,30.29,10.0,South,5.8,-,N/A,,Overcast,190,2012-12-01 17:35:00
12:55 PM,60.8,39.2,45,30.28,10.0,South,5.8,-,N/A,,Mostly Cloudy,190,2012-12-01 17:55:00
1:15 PM,62.6,41.0,45,30.28,10.0,SSW,6.9,-,N/A,,Scattered Clouds,200,2012-12-01 18:15:00
1:35 PM,60.8,39.2,45,30.28,10.0,SSW,8.1,-,N/A,,Clear,200,2012-12-01 18:35:00
1:55 PM,62.6,41.0,45,30.27,10.0,SW,5.8,-,N/A,,Clear,220,2012-12-01 18:55:00
2:15 PM,62.6,41.0,45,30.26,10.0,SW,4.6,-,N/A,,Clear,230,2012-12-01 19:15:00
2:35 PM,62.6,41.0,45,30.26,10.0,WSW,6.9,-,N/A,,Clear,250,2012-12-01 19:35:00
2:55 PM,62.6,41.0,45,30.26,10.0,WSW,6.9,-,N/A,,Clear,240,2012-12-01 19:55:00
3:15 PM,62.6,39.2,42,30.25,10.0,SW,9.2,-,N/A,,Clear,230,2012-12-01 20:15:00
3:35 PM,60.8,41.0,48,30.24,10.0,SSW,5.8,-,N/A,,Clear,210,2012-12-01 20:35:00
3:55 PM,60.8,41.0,48,30.25,10.0,SW,4.6,-,N/A,,Clear,220,2012-12-01 20:55:00
4:15 PM,60.8,41.0,48,30.25,10.0,South,3.5,-,N/A,,Clear,190,2012-12-01 21:15:00
4:35 PM,59.0,41.0,51,30.25,10.0,Calm,Calm,-,N/A,,Clear,0,2012-12-01 21:35:00
4:55 PM,53.6,41.0,62,30.24,10.0,Calm,Calm,-,N/A,,Clear,0,2012-12-01 21:55:00
5:15 PM,51.8,39.2,62,30.25,10.0,Calm,Calm,-,N/A,,Clear,0,2012-12-01 22:15:00
5:35 PM,50.0,39.2,66,30.24,10.0,Calm,Calm,-,N/A,,Clear,0,2012-12-01 22:35:00
5:55 PM,48.2,39.2,71,30.25,10.0,Calm,Calm,-,N/A,,Clear,0,2012-12-01 22:55:00
6:15 PM,46.4,37.4,71,30.25,10.0,Calm,Calm,-,N/A,,Clear,0,2012-12-01 23:15:00
6:35 PM,44.6,37.4,76,30.25,10.0,Calm,Calm,-,N/A,,Clear,0,2012-12-01 23:35:00
6:55 PM,44.6,37.4,76,30.25,10.0,Calm,Calm,-,N/A,,Clear,0,2012-12-01 23:55:00
7:15 PM,42.8,37.4,81,30.25,10.0,Calm,Calm,-,N/A,,Clear,0,2012-12-02 00:15:00
7:35 PM,42.8,37.4,81,30.25,10.0,Calm,Calm,-,N/A,,Clear,0,2012-12-02 00:35:00
7:55 PM,41.0,35.6,81,30.25,10.0,Calm,Calm,-,N/A,,Clear,0,2012-12-02 00:55:00
8:15 PM,41.0,37.4,87,30.25,10.0,Calm,Calm,-,N/A,,Clear,0,2012-12-02 01:15:00
8:35 PM,41.0,35.6,81,30.25,10.0,Calm,Calm,-,N/A,,Clear,0,2012-12-02 01:35:00
8:55 PM,41.0,35.6,81,30.25,10.0,Calm,Calm,-,N/A,,Clear,0,2012-12-02 01:55:00
9:15 PM,39.2,35.6,87,30.24,10.0,Calm,Calm,-,N/A,,Clear,0,2012-12-02 02:15:00
9:35 PM,37.4,35.6,93,30.24,10.0,Calm,Calm,-,N/A,,Clear,0,2012-12-02 02:35:00
9:55 PM,37.4,35.6,93,30.24,10.0,Calm,Calm,-,N/A,,Clear,0,2012-12-02 02:55:00
10:15 PM,37.4,33.8,87,30.24,10.0,Calm,Calm,-,N/A,,Clear,0,2012-12-02 03:15:00
10:35 PM,37.4,35.6,93,30.24,10.0,Calm,Calm,-,N/A,,Clear,0,2012-12-02 03:35:00
10:55 PM,37.4,33.8,87,30.24,10.0,Calm,Calm,-,N/A,,Clear,0,2012-12-02 03:55:00
11:15 PM,37.4,33.8,87,30.24,10.0,Calm,Calm,-,N/A,,Clear,0,2012-12-02 04:15:00
11:35 PM,35.6,33.8,93,30.24,10.0,Calm,Calm,-,N/A,,Clear,0,2012-12-02 04:35:00
11:55 PM,35.6,33.8,93,30.24,7.0,Calm,Calm,-,N/A,,Clear,0,2012-12-02 04:55:00